sat.trackr.live / text

‹ back to catalog

CONNECTA IOT-4

NORAD 60524 · 2024-149BJ

PAYLOAD ACTIVE UNKNOWN

§ Identity

Operator
Country
TURK
Launch date
2024-08-16
Launch site
AFWTR
Launch vehicle
Mass (kg)
RCS (m²)

External: N2YO · Heavens-Above · Gunter

§ Orbital elements

Epoch: 2026-05-25T05:32:05.116128Z

Period
93.44 min
Inclination
97.3797°
Eccentricity
0.0005116
Mean motion
15.41175207 rev/d
Perigee alt
439.2 km
Apogee alt
446.1 km
Semi-major
6,820.8 km
B*
4.4471e-4
RAAN
229.3456°
Arg perigee
28.1817°
Mean anomaly
331.9706°
Rev number
9,879

§ Raw data

CONNECTA IOT-41 60524U 24149BJ  26145.23061477  .00018386  00000+0  44471-3 0  99932 60524  97.3797 229.3456 0005116  28.1817 331.9706 15.41175207 98797

JSON: /api/v1/satellites/60524 · /tle

For live sub-satellite position, see the globe view (requires WebGL).

§ Visibility from observer

Set your observer location to see the next 7 days of passes ≥ 10°. The values pass through the URL so the page stays shareable.

No JS? Fill the form by hand. The geolocation button needs JavaScript.

§ Radio — SatNOGS DB

ModeDescriptionDownlinkUplink
GMSK Mode U - GMSK 4k8 AX.25 TLM 401.540 MHz
LoRa Mode U - LoRa 869.525 MHz
FM S-band telemetry 2.240 GHz

3 transmitters · refreshed weekly from db.satnogs.org